Location: Monrovia
(34.7865°N, 86.7139°W)
Time: 00:54:41
(UTC+00:00)

Cosmos 1763 Rocket - Pass Details

Date: 14 July 2020
Orbit: 732 x 781 km, 74.0° (Epoch: 12 August)

Event Time Altitude Azimuth Distance (km) Brightness Sun altitude
Rises 09:06:00 0° 342° (NNW) 3,244 7.1 -17.4°
Reaches altitude 10° 09:08:22 10° 343° (NNW) 2,320 6.3 -17.0°
Maximum altitude 09:13:40 89° 264° (W) 782 3.5 -16.2°
Drops below altitude 10° 09:18:58 10° 165° (SSE) 2,323 5.7 -15.4°
Sets 09:21:20 0° 165° (SSE) 3,248 6.5 -15.0°
